FW5309 Weather Reports


time (UTC)temp
C
wind
direction
speed
KPH
gust
KPH
rain 1hr
cm
rain 24hr
cm
rain mn
cm
humidity
%
barometer
mb
20260504081559 11 111 0.0 0.0 0.00 0.00 0.00 53 1016.5
20260504081501 11 111 0.0 0.0 0.00 0.00 0.00 53 1016.5
20260504050020 8 109 0.0 0.0 0.00 0.00 0.00 63 1016.7
20260504044540 8 109 0.0 0.0 0.00 0.00 0.00 61 1016.6
20260504043034 8 109 0.0 0.0 0.00 0.00 0.00 62 1016.6
20260504041553 8 109 0.0 0.0 0.00 0.00 0.00 62 1016.6
20260504040052 7 109 0.0 0.0 0.00 0.00 0.00 65 1016.6
20260504034602 7 109 0.0 0.0 0.00 0.00 0.00 64 1016.6
20260504033114 7 109 0.0 0.0 0.00 0.00 0.00 63 1016.6
20260504031519 8 109 0.0 0.0 0.00 0.00 0.00 61 1016.6
20260504030023 8 109 0.0 0.0 0.00 0.00 0.00 59 1016.6
20260504024604 8 109 0.0 0.0 0.00 0.00 0.00 58 1016.7
20260504023050 9 109 0.0 0.0 0.00 0.00 0.00 55 1016.6
20260504021508 9 109 0.0 0.0 0.00 0.00 0.00 52 1016.4
20260504020016 10 109 0.0 0.0 0.00 0.00 0.00 50 1016.2
20260504014539 10 115 0.0 0.0 0.00 0.00 0.00 49 1016.1
20260504013043 10 118 0.0 0.0 0.00 0.00 0.00 49 1016.1
20260504011505 11 118 0.0 0.0 0.00 0.00 0.00 45 1015.8
20260504010002 11 118 0.0 0.0 0.00 0.00 0.00 47 1015.6
20260504004522 12 118 0.0 0.0 0.00 0.00 0.00 45 1015.5
20260504003032 12 118 0.0 0.0 0.00 0.00 0.00 40 1015.5
20260504001615 13 118 0.0 0.0 0.00 0.00 0.00 38 1015.5
20260504001502 13 118 0.0 0.0 0.00 0.00 0.00 38 1015.5
20260504000058 15 118 0.0 0.0 0.00 0.00 0.00 33 1015.5
20260503234514 16 118 0.0 0.0 0.00 0.00 0.00 28 1015.5
20260503233013 17 118 0.0 0.0 0.00 0.00 0.00 25 1015.4
20260503231528 18 118 0.0 4.8 0.00 0.00 0.00 21 1015.2
20260503230028 18 118 0.0 11.3 0.00 0.00 0.00 17 1015.4
20260503224548 18 110 1.6 12.9 0.00 0.00 0.00 17 1015.6
20260503223043 19 109 3.2 11.3 0.00 0.00 0.00 16 1015.6
20260503221513 19 107 0.0 11.3 0.00 0.00 0.00 16 1015.6
20260503220010 18 137 3.2 14.5 0.00 0.00 0.00 15 1015.6
20260503214527 19 105 0.0 12.9 0.00 0.00 0.00 16 1015.8
20260503213041 18 43 3.2 17.7 0.00 0.00 0.00 17 1016.0
20260503211610 18 123 3.2 14.5 0.00 0.00 0.00 16 1016.1
20260503211502 18 123 4.8 14.5 0.00 0.00 0.00 16 1016.1
20260503210006 18 105 4.8 20.9 0.00 0.00 0.00 16 1016.1
20260503204529 19 114 3.2 16.1 0.00 0.00 0.00 15 1016.3
20260503203034 18 75 3.2 12.9 0.00 0.00 0.00 17 1016.3
20260503201556 18 109 3.2 20.9 0.00 0.00 0.00 17 1016.7
20260503200054 18 114 0.0 14.5 0.00 0.00 0.00 17 1016.9
20260503194511 18 103 3.2 19.3 0.00 0.00 0.00 17 1017.2
20260503193013 18 145 0.0 17.7 0.00 0.00 0.00 16 1017.3
20260503191525 17 109 3.2 24.1 0.00 0.00 0.00 19 1017.4
20260503190025 18 113 1.6 19.3 0.00 0.00 0.00 20 1017.8
20260503184537 18 134 4.8 19.3 0.00 0.00 0.00 18 1018.0
20260503183038 17 191 0.0 29.0 0.00 0.00 0.00 19 1018.3
20260503181615 16 159 3.2 14.5 0.00 0.00 0.00 20 1018.4
20260503180043 16 138 0.0 14.5 0.00 0.00 0.00 22 1018.6
20260503174558 16 72 0.0 12.9 0.00 0.00 0.00 22 1018.9
20260503173057 16 141 1.6 17.7 0.00 0.00 0.00 23 1019.0
20260503171521 16 141 0.0 16.1 0.00 0.00 0.00 23 1019.4